Weather History for Bloomington, IN

Change the Weather History Date:

Friday, July 13, 2012

  Actual Average Record
Temperature  
Mean Temperature 76 °F 74 °F  
Max Temperature 89 °F 84 °F 93 °F (1997)
Min Temperature 63 °F 64 °F 55 °F (2001)
Degree Days  
Heating Degree Days 0 0  
Month to date heating degree days 0 0  
Since 1 June heating degree days 22 15  
Since 1 July heating degree days 0 0  
Cooling Degree Days 11 9  
Month to date cooling degree days 225 117  
Year to date cooling degree days 674 407  
Since 1 June cooling degree days 473 325  
Growing Degree Days 26 (Base 50)    
Moisture  
Dew Point 66 °F    
Average Humidity 71    
Maximum Humidity 100    
Minimum Humidity 41    
Precipitation  
Precipitation 0.00 in 0.18 in 0.65 in (2004)
Month to date precipitation 0.73 2.18  
Year to date precipitation 12.68 26.96  
Sea Level Pressure  
Sea Level Pressure 30.06 in    
Wind  
Wind Speed 5 mph (SE)    
Max Wind Speed 13 mph    
Max Gust Speed 18 mph    
Visibility 10 miles    
Events      
T = Trace of Precipitation, MM = Missing Value Source: NWS Daily Summary

Daily Weather History Graph

Daily Weather History Graph

Search for Another Location

Airport:

Trip Planner

Search our weather history database for the weather conditions in past years. The results will help you decide how hot, cold, wet, or windy it might be!

Date:

Astronomy

Jul. 13, 2012 Rise Set
Actual Time 6:31 AM EDT 9:12 PM EDT
Civil Twilight 6:00 AM EDT 9:43 PM EDT
Nautical Twilight 5:20 AM EDT 10:23 PM EDT
Astronomical Twilight 4:36 AM EDT 11:07 PM EDT
Moon 2:07 AM EDT (7/13) 4:42 PM EDT (7/13)
Length of Visible Light 15h 43m
Length of Day
14h 40m
Waning Crescent, 26% of the Moon is Illuminated
Jul 13
Waning Crescent
Jul 19
New
Jul 26
First Quarter
Aug 1
Full
Aug 9
Last Quarter

Hourly Weather History & Observations

Time (EDT) Temp. Heat Index Dew Point Humidity Pressure Visibility Wind Dir Wind Speed Gust Speed Precip Events Conditions
12:53 AM 72.0 °F - 66.0 °F 81% 30.07 in 10.0 mi South 3.5 mph - N/A   Clear
1:53 AM 72.0 °F - 66.0 °F 81% 30.06 in 10.0 mi SSE 5.8 mph - N/A   Clear
2:53 AM 70.0 °F - 66.0 °F 87% 30.06 in 10.0 mi Calm Calm - N/A   Clear
3:53 AM 69.1 °F - 66.0 °F 90% 30.06 in 10.0 mi ESE 3.5 mph - N/A   Clear
4:53 AM 66.9 °F - 64.9 °F 93% 30.06 in 10.0 mi Calm Calm - N/A   Clear
5:53 AM 64.0 °F - 63.0 °F 96% 30.07 in 8.0 mi Calm Calm - N/A   Clear
6:53 AM 66.9 °F - 66.0 °F 97% 30.07 in 9.0 mi SE 4.6 mph - N/A   Clear
7:26 AM 68.0 °F - 66.2 °F 94% 30.10 in 10.0 mi ESE 3.5 mph - N/A   Scattered Clouds
7:36 AM 69.8 °F - 66.2 °F 88% 30.10 in 10.0 mi ESE 4.6 mph - N/A   Mostly Cloudy
7:53 AM 69.1 °F - 68.0 °F 96% 30.08 in 10.0 mi ESE 3.5 mph - N/A   Scattered Clouds
8:00 AM 69.8 °F - 68.0 °F 94% 30.10 in 10.0 mi SE 3.5 mph - N/A   Mostly Cloudy
8:07 AM 69.8 °F - 68.0 °F 94% 30.10 in 10.0 mi ESE 4.6 mph - N/A   Scattered Clouds
8:53 AM 73.9 °F - 68.0 °F 82% 30.08 in 10.0 mi SE 4.6 mph - N/A   Clear
9:53 AM 75.0 °F - 68.0 °F 79% 30.08 in 10.0 mi SE 3.5 mph - N/A   Scattered Clouds
10:01 AM 77.0 °F - 68.0 °F 74% 30.11 in 10.0 mi ESE 6.9 mph - N/A   Mostly Cloudy
10:53 AM 80.1 °F 82.1 °F 66.0 °F 62% 30.08 in 10.0 mi East 4.6 mph - N/A   Scattered Clouds
11:53 AM 82.0 °F 83.4 °F 64.0 °F 54% 30.08 in 10.0 mi SE 9.2 mph - N/A   Scattered Clouds
12:53 PM 84.0 °F 85.8 °F 64.9 °F 53% 30.08 in 10.0 mi SSE 6.9 mph - N/A   Mostly Cloudy
1:53 PM 84.0 °F 85.4 °F 64.0 °F 51% 30.07 in 10.0 mi Variable 6.9 mph - N/A   Overcast
2:53 PM 86.0 °F 87.6 °F 64.9 °F 49% 30.05 in 10.0 mi SSE 9.2 mph - N/A   Mostly Cloudy
3:53 PM 87.1 °F 88.9 °F 64.9 °F 48% 30.04 in 10.0 mi SSE 9.2 mph 17.3 mph N/A   Scattered Clouds
4:53 PM 87.1 °F 87.8 °F 63.0 °F 44% 30.02 in 10.0 mi SE 10.4 mph 17.3 mph N/A   Clear
5:53 PM 89.1 °F 90.0 °F 63.0 °F 42% 30.00 in 10.0 mi SE 9.2 mph - N/A   Clear
6:53 PM 87.1 °F 88.3 °F 64.0 °F 46% 30.00 in 10.0 mi SSE 10.4 mph - N/A   Clear
7:53 PM 84.9 °F 86.1 °F 64.0 °F 49% 30.01 in 10.0 mi SSE 8.1 mph - N/A   Clear
8:53 PM 81.0 °F 82.7 °F 64.9 °F 58% 30.03 in 10.0 mi SSE 5.8 mph - N/A   Clear
9:53 PM 77.0 °F - 66.0 °F 69% 30.04 in 10.0 mi SSE 3.5 mph - N/A   Clear
10:53 PM 75.9 °F - 66.0 °F 71% 30.04 in 10.0 mi SSE 4.6 mph - N/A   Partly Cloudy
11:53 PM 75.0 °F - 66.9 °F 76% 30.04 in 10.0 mi SSE 3.5 mph - N/A   Clear